| time (UTC) | temp F | wind direction | speed MPH | gust MPH | rain 1hr in | rain 24hr in | rain mn in | humidity % | barometer mb |
| 20260503020051 | 73 | 294 | 0.0 | 0.0 | 0.00 | 0.00 | 0.00 | 33 | 1008.4 |
| 20260503014546 | 74 | 274 | 0.0 | 1.0 | 0.00 | 0.00 | 0.00 | 29 | 1008.4 |
| 20260503013044 | 75 | 8 | 0.0 | 0.0 | 0.00 | 0.00 | 0.00 | 28 | 1008.5 |
| 20260503011542 | 75 | 304 | 0.0 | 0.0 | 0.00 | 0.00 | 0.00 | 29 | 1008.7 |
| 20260503010043 | 76 | 20 | 0.0 | 1.0 | 0.00 | 0.00 | 0.00 | 29 | 1008.7 |
| 20260503004555 | 78 | 319 | 0.0 | 1.0 | 0.00 | 0.00 | 0.00 | 26 | 1008.8 |
| 20260503003057 | 80 | 351 | 0.0 | 0.0 | 0.00 | 0.00 | 0.00 | 19 | 1008.7 |
| 20260503001548 | 80 | 107 | 0.0 | 0.0 | 0.00 | 0.00 | 0.00 | 18 | 1008.8 |
| 20260503000038 | 80 | 107 | 0.0 | 0.0 | 0.00 | 0.00 | 0.00 | 17 | 1008.9 |
| 20260502234535 | 80 | 64 | 0.0 | 0.0 | 0.00 | 0.00 | 0.00 | 17 | 1009.1 |
| 20260502233034 | 79 | 144 | 0.0 | 0.0 | 0.00 | 0.00 | 0.00 | 17 | 1009.2 |
| 20260502231533 | 80 | 341 | 0.0 | 0.0 | 0.00 | 0.00 | 0.00 | 16 | 1009.2 |
| 20260502230031 | 81 | 25 | 0.0 | 0.0 | 0.00 | 0.00 | 0.00 | 14 | 1009.4 |
| 20260502224534 | 81 | 74 | 0.0 | 0.0 | 0.00 | 0.00 | 0.00 | 16 | 1009.7 |
| 20260502223025 | 80 | 54 | 0.0 | 1.0 | 0.00 | 0.00 | 0.00 | 16 | 1009.9 |
| 20260502221522 | 80 | 72 | 0.0 | 1.0 | 0.00 | 0.00 | 0.00 | 15 | 1010.1 |
| 20260502220027 | 81 | 343 | 0.0 | 1.0 | 0.00 | 0.00 | 0.00 | 17 | 1010.3 |
| 20260502214517 | 81 | 325 | 0.0 | 1.0 | 0.00 | 0.00 | 0.00 | 14 | 1010.5 |
| 20260502213015 | 80 | 65 | 0.0 | 4.0 | 0.00 | 0.00 | 0.00 | 20 | 1010.7 |
| 20260502211514 | 81 | 101 | 0.0 | 4.0 | 0.00 | 0.00 | 0.00 | 19 | 1011.0 |
| 20260502210008 | 80 | 56 | 0.0 | 2.0 | 0.00 | 0.00 | 0.00 | 20 | 1011.2 |
| 20260502204506 | 80 | 89 | 0.0 | 7.0 | 0.00 | 0.00 | 0.00 | 18 | 1011.4 |
| 20260502203004 | 80 | 130 | 0.0 | 5.0 | 0.00 | 0.00 | 0.00 | 20 | 1011.5 |
| 20260502201503 | 80 | 164 | 0.0 | 5.0 | 0.00 | 0.00 | 0.00 | 20 | 1011.7 |
| 20260502200133 | 79 | 53 | 0.0 | 7.0 | 0.00 | 0.00 | 0.00 | 21 | 1011.9 |
| 20260502194608 | 78 | 139 | 0.0 | 8.0 | 0.00 | 0.00 | 0.00 | 20 | 1012.2 |
| 20260502193055 | 76 | 262 | 0.0 | 3.0 | 0.00 | 0.00 | 0.00 | 27 | 1012.4 |
| 20260502191553 | 75 | 68 | 0.0 | 1.0 | 0.00 | 0.00 | 0.00 | 30 | 1012.7 |
| 20260502190046 | 74 | 98 | 0.0 | 4.0 | 0.00 | 0.00 | 0.00 | 32 | 1013.0 |
| 20260502184545 | 74 | 339 | 0.0 | 3.0 | 0.00 | 0.00 | 0.00 | 30 | 1013.1 |
| 20260502183046 | 72 | 143 | 0.0 | 0.0 | 0.00 | 0.00 | 0.00 | 33 | 1013.4 |
| 20260502181535 | 70 | 285 | 0.0 | 0.0 | 0.00 | 0.00 | 0.00 | 34 | 1013.7 |
| 20260502163018 | 62 | 149 | 0.0 | 5.0 | 0.00 | 0.00 | 0.00 | 39 | 1014.9 |
| 20260502161510 | 60 | 136 | 0.0 | 8.0 | 0.00 | 0.00 | 0.00 | 40 | 1015.0 |
| 20260502151611 | 57 | 127 | 0.0 | 8.0 | 0.00 | 0.00 | 0.00 | 43 | 1015.1 |
| 20260502150127 | 55 | 92 | 1.0 | 9.0 | 0.00 | 0.00 | 0.00 | 44 | 1014.9 |
| 20260502123113 | 48 | 156 | 0.0 | 0.0 | 0.00 | 0.00 | 0.00 | 56 | 1014.4 |
| 20260502121541 | 47 | 139 | 0.0 | 0.0 | 0.00 | 0.00 | 0.00 | 61 | 1014.3 |
| 20260502114540 | 48 | 148 | 0.0 | 0.0 | 0.00 | 0.00 | 0.00 | 60 | 1014.2 |
| 20260502113046 | 49 | 120 | 0.0 | 0.0 | 0.00 | 0.00 | 0.00 | 59 | 1014.3 |
| 20260502111540 | 49 | 127 | 0.0 | 0.0 | 0.00 | 0.00 | 0.00 | 59 | 1014.3 |
| 20260502110037 | 49 | 126 | 0.0 | 0.0 | 0.00 | 0.00 | 0.00 | 59 | 1014.3 |
| 20260502104535 | 47 | 131 | 0.0 | 0.0 | 0.00 | 0.00 | 0.00 | 62 | 1014.2 |
| 20260502103057 | 46 | 124 | 0.0 | 0.0 | 0.00 | 0.00 | 0.00 | 64 | 1014.3 |
| 20260502101546 | 47 | 124 | 0.0 | 0.0 | 0.00 | 0.00 | 0.00 | 61 | 1014.3 |
| 20260502091528 | 50 | 158 | 0.0 | 0.0 | 0.00 | 0.00 | 0.00 | 59 | 1014.1 |
| 20260502071517 | 48 | 113 | 0.0 | 0.0 | 0.00 | 0.00 | 0.00 | 65 | 1014.4 |
| 20260502070013 | 49 | 113 | 0.0 | 0.0 | 0.00 | 0.00 | 0.00 | 62 | 1014.3 |
| 20260502064504 | 50 | 142 | 0.0 | 0.0 | 0.00 | 0.00 | 0.00 | 59 | 1014.3 |
| 20260502063126 | 52 | 113 | 0.0 | 0.0 | 0.00 | 0.00 | 0.00 | 55 | 1014.3 |
| 20260502061600 | 52 | 120 | 0.0 | 0.0 | 0.00 | 0.00 | 0.00 | 53 | 1014.2 |
| 20260502060106 | 52 | 115 | 0.0 | 0.0 | 0.00 | 0.00 | 0.00 | 54 | 1014.2 |
| 20260502054620 | 53 | 139 | 0.0 | 0.0 | 0.00 | 0.00 | 0.00 | 53 | 1014.2 |
| 20260502053101 | 54 | 138 | 0.0 | 0.0 | 0.00 | 0.00 | 0.00 | 52 | 1014.2 |
| 20260502051554 | 55 | 156 | 0.0 | 0.0 | 0.00 | 0.00 | 0.00 | 52 | 1014.1 |
| 20260502050054 | 57 | 156 | 0.0 | 0.0 | 0.00 | 0.00 | 0.00 | 47 | 1014.1 |
| 20260502044554 | 58 | 156 | 0.0 | 0.0 | 0.00 | 0.00 | 0.00 | 43 | 1014.0 |
| 20260502043104 | 59 | 128 | 0.0 | 0.0 | 0.00 | 0.00 | 0.00 | 44 | 1014.0 |
| 20260502041553 | 59 | 66 | 0.0 | 0.0 | 0.00 | 0.00 | 0.00 | 44 | 1013.9 |
| 20260502040054 | 59 | 20 | 0.0 | 0.0 | 0.00 | 0.00 | 0.00 | 41 | 1013.9 |
| 20260502034552 | 62 | 20 | 0.0 | 0.0 | 0.00 | 0.00 | 0.00 | 39 | 1013.8 |
| 20260502033051 | 63 | 20 | 0.0 | 0.0 | 0.00 | 0.00 | 0.00 | 36 | 1013.6 |
| 20260502031551 | 64 | 20 | 0.0 | 0.0 | 0.00 | 0.00 | 0.00 | 36 | 1013.4 |
| 20260502024549 | 67 | 20 | 0.0 | 0.0 | 0.00 | 0.00 | 0.00 | 32 | 1013.1 |
| 20260502023049 | 69 | 20 | 0.0 | 0.0 | 0.00 | 0.00 | 0.00 | 29 | 1013.1 |
| 20260502021548 | 71 | 20 | 0.0 | 0.0 | 0.00 | 0.00 | 0.00 | 28 | 1013.1 |